DW7126 Weather Reports


time (UTC)temp
C
wind
direction
speed
KPH
gust
KPH
rain 1hr
cm
rain 24hr
cm
rain mn
cm
humidity
%
barometer
mb
20260503202243 15 344 4.8 14.5 0.00 0.00 0.00 82 1015.6
20260503193412 15 333 9.7 16.1 0.00 0.00 0.00 79 1015.0
20260503192448 15 333 8.0 17.7 0.00 0.00 0.00 79 1015.0
20260503191427 16 341 12.9 19.3 0.00 0.00 0.00 79 1014.8
20260503190152 16 327 8.0 19.3 0.00 0.00 0.00 79 1014.7
20260503184506 16 321 9.7 24.1 0.00 0.00 0.00 79 1014.6
20260503184408 16 321 11.3 24.1 0.00 0.00 0.00 79 1020.1
20260503183359 16 328 12.9 22.5 0.00 0.00 0.00 80 1014.6
20260503182354 16 344 14.5 24.1 0.00 0.00 0.00 80 1014.6
20260503180427 16 321 8.0 17.7 0.00 0.00 0.00 84 1014.5
20260503180031 16 350 8.0 22.5 0.00 0.00 0.00 84 1014.5
20260503175411 16 341 12.9 22.5 0.00 0.00 0.00 82 1020.1
20260503172408 16 306 8.0 17.7 0.00 0.00 0.00 83 1014.7
20260503171426 17 324 9.7 20.9 0.00 0.00 0.00 81 1014.8
20260503140224 17 297 12.9 20.9 0.00 0.00 0.00 84 1015.1
20260503131419 17 290 12.9 20.9 0.00 0.00 0.00 84 1015.1
20260503072404 14 24 0.0 1.6 0.00 2.11 0.00 91 1014.8
20260503071423 13 24 0.0 0.0 0.00 2.11 0.00 91 1014.8
20260503070414 13 18 0.0 0.0 0.00 2.11 0.00 91 1014.8
20260503053356 13 322 0.0 0.0 0.00 2.49 0.00 90 1014.4
20260503052409 13 303 0.0 0.0 0.00 2.49 0.00 90 1014.3
20260503045431 13 303 0.0 3.2 0.00 2.59 0.00 90 1014.4
20260503035430 13 251 0.0 3.2 0.00 2.69 0.00 90 1014.3
20260503034409 13 250 1.6 3.2 0.00 2.69 0.00 90 1014.4
20260503032413 14 257 0.0 1.6 0.00 2.69 0.00 90 1014.5
20260503031413 14 259 0.0 3.2 0.00 2.69 0.00 90 1014.5
20260503025359 14 266 3.2 8.0 0.00 2.69 0.00 90 1014.6
20260503024356 14 255 4.8 8.0 0.00 2.69 0.00 90 1014.7
20260503022424 14 248 3.2 6.4 0.00 2.69 0.00 90 1014.7
20260503015356 15 254 3.2 9.7 0.00 2.69 0.00 91 1014.8
20260503014501 14 263 3.2 6.4 0.00 0.53 0.00 91 1014.9
20260503014433 15 260 3.2 8.0 0.00 2.69 0.00 91 1020.4
20260503013425 14 263 8.0 16.1 0.00 2.69 0.00 91 1015.0
20260503012418 14 271 4.8 8.0 0.00 2.69 0.00 91 1015.1
20260503011418 14 266 3.2 8.0 0.00 2.69 0.00 91 1015.2
20260503010017 14 265 1.6 8.0 0.00 0.53 0.00 91 1015.1
20260503005356 14 264 1.6 6.4 0.00 2.69 0.00 91 1015.3
20260503004531 13 243 1.6 6.4 0.00 0.53 0.00 91 1015.4
20260503003358 14 240 3.2 6.4 0.00 2.69 0.00 91 1015.5
20260503002412 14 254 3.2 8.0 0.00 2.69 0.00 91 1015.5
20260503001401 14 245 3.2 4.8 0.00 2.69 0.00 91 1015.6
20260502234532 14 245 1.6 6.4 0.00 0.53 0.00 91 1015.8
20260502234409 15 248 3.2 6.4 0.00 2.69 0.00 91 1021.3
20260502233407 15 238 3.2 6.4 0.00 2.69 0.00 91 1016.0
20260502233003 15 219 3.2 6.4 0.00 0.53 0.00 91 1015.9
20260502232409 15 228 3.2 8.0 0.00 2.69 0.00 91 1021.4
20260502225404 15 229 4.8 9.7 0.00 2.69 0.53 91 1016.1
20260502224405 15 225 4.8 9.7 0.00 2.69 0.53 91 1016.2
20260502223403 15 240 8.0 11.3 0.00 2.69 0.53 92 1016.2
20260502223009 15 232 6.4 11.3 0.00 0.53 0.53 92 1016.1
20260502222421 15 242 6.4 8.0 0.00 2.69 0.53 92 1016.2
20260502204415 15 227 8.0 12.9 0.00 2.69 0.53 90 1016.0
20260502203424 15 232 11.3 12.9 0.00 2.69 0.53 90 1015.9